Location: ??????????
(44.3839°N, 135.7794°E)
Time: 15:44:00
(UTC+00:00)

Daily predictions for brighter satellites

Satellite Brightness Start Highest point End
(mag) Time Altitude Azimuth Time Altitude Azimuth Time Altitude Azimuth
SL-16 R/B 4.5 12:13:33 10° NW 12:16:20 19° W 12:16:20 19° W
Cosmos 2344 3.9 18:40:46 60° NNW 18:42:41 81° NE 18:53:48 10° SE
Cosmos 2263 Rocket 4.1 18:48:16 14° N 18:52:02 26° NE 18:56:44 10° ESE
USA 215 4.3 18:59:38 10° E 19:05:33 37° NNE 19:07:39 30° NNW
COSMOS 2455 3.4 19:15:45 39° SSE 19:17:37 54° ESE 19:23:28 10° NE
Cosmos 2227 Rocket 2.4 19:21:36 41° N 19:23:33 68° ENE 19:29:11 10° SE
Exosat Rocket 4.1 19:21:40 17° NNW 19:26:00 57° ENE 19:30:53 10° SE
Cosmos 773 Rocket 4.4 19:23:58 32° N 19:26:17 61° ENE 19:31:24 10° SSE
CZ-2C R/B 3.4 19:25:30 10° N 19:28:11 35° N 19:28:11 35° N
SL-08 R/B 4.5 19:26:09 24° S 19:30:15 88° E 19:36:46 10° N
Cosmos 1934 Rocket 4.2 19:24:45 10° S 19:30:47 69° E 19:36:58 10° NNE
SL-4 R/B 3.4 19:32:39 33° ENE 19:32:39 33° ENE 19:34:59 10° E
Meteor 2-16 Rocket 4.3 19:31:50 10° N 19:37:57 81° W 19:44:03 10° S
PAYLOAD A 3.9 19:35:04 10° N 19:40:22 75° WNW 19:40:52 69° WSW
USA 59 Rocket 1.7 19:45:29 16° NNE 19:45:29 16° NNE 19:46:14 10° NNE
Cosmos 836 Rocket 4.3 19:44:50 56° NW 19:45:56 77° WSW 19:51:08 10° SSE
Meteor 2-21 Rocket 4.4 19:43:03 10° NNW 19:49:03 58° W 19:54:58 10° S
Meteor 2-8 Rocket 4.3 19:48:09 31° SSW 19:51:08 65° W 19:57:17 10° N
Cosmos 1980 Rocket 2.4 19:47:13 17° SSW 19:51:34 70° ESE 19:57:09 10° NNE
SKYMED 2 4.2 19:47:50 10° SSE 19:52:04 56° ENE 19:56:20 10° N
Intercosmos 25 Rocket 3.4 19:55:47 36° NNE 19:56:48 57° E 19:59:59 10° SSE
Meteor 1-11 4.2 19:52:44 10° NNW 19:58:36 75° W 20:04:26 10° S
H-2A R/B 3.1 19:56:15 10° NNE 20:00:06 89° E 20:00:50 57° SSW
Cosmos 1697 Rocket 2.9 20:01:44 44° W 20:02:24 46° WNW 20:07:52 10° NNE
ISS -1.2 20:02:45 13° S 20:04:32 19° SE 20:06:59 10° E
Cosmos 1908 Rocket 4.1 20:00:27 10° S 20:04:42 58° E 20:09:01 10° NNE
Cosmos 1733 Rocket 4.3 20:08:46 26° NNW 20:08:46 26° NNW 20:11:00 10° N
FengYun 1-2 T 4.1 20:01:57 10° N 20:07:24 67° WNW 20:12:49 10° SSW
Cosmos 2297 Rocket 4.3 20:11:59 11° SSW 20:11:59 11° SSW 20:12:10 10° SSW
Cosmos 2292 Rocket 4.5 20:09:00 10° NNW 20:13:55 46° W 20:19:59 10° SSW
Cosmos 1378 Rocket 4.2 20:21:13 33° WSW 20:21:13 33° WSW 20:24:11 10° SSW
Cosmos 2221 Rocket 3.6 20:15:50 10° N 20:20:24 87° E 20:24:56 10° S
Cosmos 2219 3.4 20:17:35 10° NNW 20:23:20 75° ENE 20:28:59 10° SSE
Cosmos 1400 Rocket 3.3 20:21:22 10° S 20:25:04 56° E 20:28:49 10° NNE
IRS-1D 3.4 20:23:19 10° NNE 20:28:33 78° WNW 20:33:36 10° SSW
Cosmos 1025 Rocket 3.0 20:25:53 10° NNW 20:30:09 55° W 20:34:23 10° S
Cosmos 1939 Rocket 4.3 20:29:35 10° NNW 20:31:22 20° NW 20:31:22 20° NW
Cosmos 1503 Rocket 4.0 20:30:45 10° SW 20:35:50 57° WNW 20:41:00 10° NNE
Cosmos 2263 Rocket 2.3 20:30:46 10° NNW 20:36:17 55° WSW 20:41:45 10° S
NOSS 3-1 (C) 2.9 20:33:07 20° SW 20:36:21 62° NW 20:41:52 10° NNE
FALCON 9 R/B 3.1 20:36:05 10° S 20:36:23 10° S 20:36:41 10° S
GP-B 3.5 20:32:34 10° N 20:36:56 64° E 20:41:15 10° S
Helios 1A Rocket 4.2 20:37:54 10° SE 20:40:52 33° ENE 20:43:51 10° N
NOSS 3-1 (A) 3.4 20:38:45 10° SSW 20:43:12 61° ESE 20:48:31 10° NE
NOAA 12 4.2 20:40:06 10° N 20:45:13 51° WNW 20:50:19 10° SW
USA 215 3.4 20:41:29 10° ESE 20:48:04 82° NE 20:54:40 10° NW
COSMO-SKYMED 1 2.4 20:45:58 10° S 20:50:00 58° W 20:54:04 10° NNW
Cosmos 1300 Rocket 3.5 20:47:13 10° SSW 20:51:35 74° W 20:56:01 10° N
Cosmos 2369 3.6 20:46:29 10° SSW 20:52:09 73° WNW 20:57:50 10° NNE
Cosmos 2082 3.7 20:46:29 10° NNW 20:52:13 81° WSW 20:57:52 10° SSE
Cosmos 2346 Rocket 4.4 20:47:38 10° NNW 20:53:43 61° W 20:59:41 10° S
Cosmos 1869 2.9 20:54:24 10° S 20:57:57 82° W 21:01:30 10° N
Cosmos 1346 Rocket 2.9 20:57:03 10° N 21:00:43 68° ENE 21:04:22 10° SSE
SL-16 R/B 3.0 20:55:52 10° S 21:01:21 55° ESE 21:06:53 10° NNE
Cosmos 2173 Rocket 4.4 20:56:11 10° S 21:02:30 72° E 21:08:51 10° NNE
COSMOS 2455 3.6 20:58:57 12° WSW 21:03:49 32° NW 21:09:10 10° NNE
Cosmos 2227 Rocket 3.5 21:03:29 11° WNW 21:06:58 19° W 21:10:45 10° SW
USA 276 2.5 21:07:28 11° N 21:07:28 11° N 21:07:43 10° NNE
SL-4 R/B 2.6 21:06:16 14° W 21:08:51 33° SW 21:12:15 10° SSE
BREEZE-M R/B 3.3 21:07:25 13° NW 21:09:18 25° N 21:11:24 10° ENE
ARIANE 5 R/B 4.5 21:05:13 10° NNE 21:09:43 33° E 21:14:13 10° SSE
Cosmos 2333 Rocket 3.2 21:06:17 10° S 21:11:51 52° ESE 21:17:25 10° NE
Cosmos 2100 Rocket 4.1 21:07:59 10° S 21:14:21 89° ESE 21:20:44 10° N
Cosmos 1812 2.9 21:15:00 10° SW 21:16:49 19° WNW 21:18:40 10° NNW
CBERS-1 4.1 21:13:07 10° NNE 21:18:15 87° ESE 21:23:22 10° SSW
SMAP 3.2 21:18:24 10° NNE 21:23:05 81° ESE 21:27:44 10° S
Thor Agena Rocket 4.1 21:23:49 10° NNE 21:29:04 66° ESE 21:34:17 10° S
Cosmos 372 Rocket 3.9 21:24:23 10° SSW 21:29:25 69° WNW 21:34:32 10° NNE
Cosmos 2322 Rocket 3.1 21:26:46 10° S 21:32:17 55° ESE 21:37:49 10° NNE
